Location: Arroyo de Valdeoliva
(40.1604°N, 4.9878°W)
Time: 16:26:54
(UTC+00:00)

NOAA 15 - Visible Passes

Search period start: 14 March 2026 00:00
Search period end: 24 March 2026 00:00
Orbit: 795 x 808 km, 98.5° (Epoch: 14 March)

Date Brightness Start Highest point End Pass type
(mag) Time Alt. Az. Time Alt. Az. Time Alt. Az.
14 Mar 6.9 19:42:42 10° SSW 19:47:05 26° W 19:51:30 10° NW visible
15 Mar 5.8 19:15:40 10° S 19:20:42 46° W 19:25:48 10° NNW visible
16 Mar 4.8 18:49:08 10° S 18:54:25 81° WSW 18:59:45 10° NNW visible
17 Mar 7.5 20:05:01 10° SW 20:08:19 17° W 20:11:40 10° NW visible
18 Mar 6.7 19:37:18 10° SSW 19:41:51 29° W 19:46:27 10° NW visible
19 Mar 5.6 19:10:22 10° S 19:15:30 51° W 19:20:40 10° NNW visible
21 Mar 7.4 19:59:26 10° SW 20:03:04 19° W 20:06:44 10° NW visible
22 Mar 6.5 19:31:55 10° SSW 19:36:38 32° W 19:41:22 10° NNW visible
23 Mar 5.4 19:05:06 10° S 19:10:17 57° W 19:15:31 10° NNW visible
